Regional Weather Roundup
Issued by NWS

Home | Current Version | Previous Version | Graphics & Text | Print | Product List | Glossary On
Versions: 1 2 3 4 5 6 7 8 9 10 11 12 13 14 15 16 17 18 19 20 21 22 23 24 25 26 27 28 29 30 31 32 33 34 35 36 37 38 39 40 41 42 43 44 45 46 47 48 49 50
000
ASUS43 KDMX 291103
RWRIA

WEATHER ROUNDUP FOR IOWA
NATIONAL WEATHER SERVICE DES MOINES IA
600 AM CDT SUN MAY 29 2016

NOTE: "FAIR" INDICATES FEW OR NO CLOUDS BELOW 12,000 FEET WITH NO
SIGNIFICANT WEATHER AND/OR OBSTRUCTIONS TO VISIBILITY.

* - THESE STATIONS ARE NOT NWS STATIONS...THUS NOT UNDER NWS
QUALITY CONTROL.  THEY ALSO DO NOT REPORT WEATHER SUCH
AS PRECIPITATION OR FOG.

IAZ001>003-012>014-020>022-031>034-043>046-291200-
   NORTHWEST IOWA

CITY           SKY/WX    TMP DP  RH WIND       PRES   REMARKS
CARROLL *      CLEAR     57  55  94 W8        30.01R
CHEROKEE *     CLEAR     55  55 100 S3        30.01R FOG
DENISON *      CLEAR     54  54 100 CALM      30.01R FOG
LE MARS *      CLOUDY    57  57 100 SW3       30.02R
ORANGE CITY *  PTCLDY    55  55 100 SW5       30.00R
SHELDON *      CLOUDY    57  57 100 SW8       29.99R FOG
SIOUX CITY     CLOUDY    58  55  90 CALM      30.01R
SPENCER        CLEAR     57  55  93 W8        29.98R FOG
STORM LAKE *   MOCLDY    55  55 100 W9        30.01R FOG
$$

IAZ055>058-069>071-079>083-090>094-291200-
   SOUTHWEST IOWA

CITY           SKY/WX    TMP DP  RH WIND       PRES   REMARKS
ATLANTIC *     CLEAR     54  52  94 CALM      30.03R
AUDUBON *      CLEAR     55  52  88 SW6       30.04R
CLARINDA *       N/A     54  54 100 MISG      30.06R
COUNCIL BLFS * CLEAR     57  55  94 SW5       30.04R
CRESTON *      CLEAR     55  54  94 W5        30.04R
HARLAN  *      CLEAR     54  54 100 CALM      30.07R
LAMONI         CLEAR     57  55  93 W6        30.03R
RED OAK *      CLEAR     54  52  94 CALM      30.04R
SHENANDOAH *   CLEAR     57  57 100 CALM      30.05R
$$

IAZ047>049-059>061-072>074-084-291200-
   CENTRAL IOWA

CITY           SKY/WX    TMP DP  RH WIND       PRES   REMARKS
AMES           CLEAR     58  57  97 W10       29.98R
ANKENY *       CLEAR     59  59 100 W5        29.99R
BOONE *        CLOUDY    59  59 100 W8        29.99R
CHARITON *     CLEAR     57  55  94 W7        30.02R
DES MOINES     PTCLDY    59  55  87 W5        30.00R
GRINNELL*      PTCLDY    61  57  88 SW8       29.99R
KNOXVILLE *    CLEAR     59  55  88 SW6       29.99R
MARSHALLTOWN   CLEAR     60  59  96 W9        29.96R
NEWTON *       CLEAR     59  59 100 W7        29.99R
PELLA *        CLEAR     60  58  92 W9        30.01R
PERRY *          N/A     57  57 100 W8        30.00R
$$

IAZ004>006-015-016-023>025-035-036-291200-
   NORTH CENTRAL IOWA

CITY           SKY/WX    TMP DP  RH WIND       PRES   REMARKS
ALGONA *       CLOUDY    59  57  94 W10       29.97R FOG
CLARION *      PTCLDY    59  59 100 W9        29.97R
ESTHERVILLE    CLEAR     57  57 100 W9        29.96R
FORT DODGE *   CLEAR     57  54  88 W6        29.98R
MASON CITY     CLEAR     59  58  96 W12       29.96R
FOREST CITY *  CLEAR     57  57 100 W6        29.95R
WEBSTER CITY * PTCLDY    59  59 100 W8        29.96R
IOWA FALLS *     N/A     61  59  94 W8        29.97R
$$

IAZ007>011-017>019-026>030-037>042-050>054-066-291200-
   NORTHEAST IOWA

CITY           SKY/WX    TMP DP  RH WIND       PRES   REMARKS
CEDAR RAPIDS   PTCLDY    60  60 100 W10       29.95R
CHARLES CITY * PTCLDY    61  61 100 W10G16    29.94R
CLINTON *      CLEAR     63  59  87 SW12      29.95R
DECORAH *      CLOUDY    61  61 100 VRB7      29.90R
DUBUQUE        CLOUDY    62  59  90 SW13      29.92R
MONTICELLO *   CLOUDY    63  59  88 W10       29.93R
OELWEIN *      CLOUDY    63  63 100 W15G22    29.95R
WATERLOO       MOCLDY    62  59  90 W9        29.94R
$$

IAZ064-065-067-068-078-291200-
   EAST CENTRAL IOWA

CITY           SKY/WX    TMP DP  RH WIND       PRES   REMARKS
DAVENPORT      CLEAR     64  58  80 SW12      29.96R
IOWA CITY      MOCLDY    63  58  83 W10       29.98R
MT. PLEASANT * CLEAR     64  61  88 SW7       30.00R
MUSCATINE *    CLEAR     64  59  82 W13       29.98R
QUAD CITIES    CLEAR     66  58  75 SW10      29.95R
$$

IAZ062-063-075>077-085>089-095>099-291200-
   SOUTHEAST IOWA

CITY           SKY/WX    TMP DP  RH WIND       PRES   REMARKS
BURLINGTON     CLEAR     61  60  97 W6        29.99R
FAIRFIELD *      N/A    N/A N/A N/A MISG        N/A
FORT MADISON * CLEAR     63  59  88 SW5       30.02R
KEOKUK *       CLEAR     61  59  94 SW7       30.01R
OSKALOOSA *      N/A     59  57  94 W8        30.00R
OTTUMWA        CLEAR     60  57  89 W9        30.00R
WASHINGTON *   PTCLDY    63 N/A N/A W10       29.99R
$$

ABBREVIATIONS USED IN REMARKS
   TC - TEMPERATURES IN CELSIUS
  WCI - WIND CHILL INDEX
   HX - HEAT INDEX
  VSB - VISIBILITY
$$





USA.gov is the U.S. government's official web portal to all federal, state and local government web resources and services.